Погода в Гжели

Россия / Московская область     55°36′44″N   38°25′30″E
темп.,
°C
ветер,
м/с
пор.,
м/с
влажн.,
%
обл.,
%
осадки,
мм/ч
давл.,
гПа
погр.,
м
9 марта, вт
вт900:00−14сз35940 0.0 101085
03:00−16сз35960 0.0 101288
06:00−16ссз379686 0.1 1014185
09:00−15ссз379168 0.1 1015292
12:00−11ссз468273 0.0 1016686
15:00−11сз467986 0.1 1017903
18:00−14ссз4886100 0.1 1019326
21:00−18с399381 0.1 1021246
10 марта, ср
ср1000:00−21ссз36960 0.0 1023162
03:00−23ссз34960 0.0 1024107
06:00−24ссз35960 0.0 1026113
09:00−22с36920 0.0 1027267
12:00−18с348022 0.0 1028516
15:00−15с357747 0.0 1028670
18:00−18с23873 0.0 102929
21:00−21с22931 0.0 103121
11 марта, чт
чт1100:00−22с22940 0.0 103220
03:00−23сз22910 0.0 103320
06:00−23зсз22880 0.0 103320
09:00−19зсз23810 0.0 1033141
12:00−13з23730 0.0 1033414
15:00−11з33745 0.0 1032557
18:00−14зюз12844 0.0 103220
21:00−17юз23862 0.0 103226
12 марта, пт
пт1200:00−19юз33840 0.0 103246
03:00−21ююз33850 0.0 103257
06:00−21ююз36810 0.0 1032118
09:00−18ю49790 0.0 1031267
12:00−11ю59750 0.0 1029453
15:00−8ю611740 0.0 1028667
18:00−11ю613800 0.0 1026497
21:00−12ю6168350 0.0 1026532
13 марта, сб
сб1300:00−11ю61678100 0.0 1024629
03:00−10ю71677100 0.0 1022670
06:00−9ю71580100 0.0 1021757
09:00−8ю81492100 0.6 1019861
12:00−5ю81290100 0.6 1018921
15:00−4ю71293100 1.8 1017788
18:00−3ю61191100 0.8 1016565
21:00−3ююз5119499 0.8 1016398